Location: Bern�tre
(50.1974°N, 2.0915°E)
Time: 05:59:25
(UTC+00:00)

Cosmos 2278 Rocket - Pass Details

Date: 18 September 2020
Orbit: 841 x 845 km, 71.0° (Epoch: 22 October)

Event Time Altitude Azimuth Distance (km) Brightness Sun altitude
Exits shadow 21:22:32 19° 43° (NE) 1,928 4.1 -30.0°
Drops below altitude 10° 21:24:03 10° 37° (NE) 2,470 4.7 -30.2°
Sets 21:26:34 0° 33° (NNE) 3,410 5.5 -30.5°
